Total_Precipitation_Accumulation
0.53 0.53 0.53 0.53 0.54 0.55 0.53 0.49 0.46 0.44 0.44 0.45 0.42 0.40 0.39 0.39 0.37 0.37 0.34 0.30 0.27 0.25 0.21 0.20 0.19 0.18 0.19 0.19 0.21 0.25 0.30 0.41 0.48 0.32 0.23 0.26 0.32 0.35 0.38 0.43 0.42 0.46 0.58
0.39 0.36 0.35 0.35 0.33 0.33 0.35 0.37 0.35 0.35 0.36 0.36 0.33 0.31 0.29 0.26 0.25 0.24 0.22 0.19 0.19 0.18 0.18 0.19 0.18 0.18 0.20 0.21 0.25 0.28 0.32 0.43 0.56 0.49 0.36 0.39 0.43 0.46 0.56 0.58 0.51 0.46 0.53
0.33 0.30 0.27 0.26 0.25 0.25 0.25 0.25 0.25 0.25 0.26 0.25 0.24 0.24 0.22 0.20 0.18 0.18 0.17 0.16 0.15 0.16 0.18 0.19 0.19 0.22 0.24 0.28 0.36 0.40 0.43 0.46 0.60 0.63 0.51 0.53 0.58 0.64 0.76 0.71 0.60 0.57 0.46
0.28 0.24 0.22 0.23 0.23 0.22 0.21 0.21 0.21 0.21 0.22 0.22 0.20 0.19 0.17 0.14 0.13 0.12 0.11 0.10 0.12 0.14 0.17 0.21 0.25 0.31 0.35 0.41 0.43 0.44 0.49 0.55 0.60 0.67 0.64 0.67 0.72 0.77 0.82 0.82 0.68 0.60 0.55
0.25 0.24 0.25 0.26 0.26 0.26 0.26 0.25 0.25 0.25 0.23 0.22 0.19 0.16 0.14 0.12 0.08 0.06 0.05 0.07 0.11 0.15 0.17 0.20 0.25 0.33 0.40 0.39 0.37 0.40 0.50 0.63 0.66 0.74 0.75 0.71 0.70 0.79 0.81 0.72 0.62 0.53 0.47
0.35 0.36 0.36 0.35 0.33 0.32 0.31 0.30 0.30 0.27 0.24 0.19 0.15 0.12 0.10 0.06 0.05 0.06 0.05 0.08 0.13 0.18 0.22 0.22 0.20 0.23 0.22 0.23 0.29 0.35 0.46 0.64 0.85 0.96 0.87 0.77 0.64 0.65 0.68 0.63 0.63 0.58 0.49
0.50 0.47 0.42 0.37 0.36 0.33 0.30 0.31 0.29 0.24 0.19 0.15 0.12 0.08 0.08 0.05 0.04 0.04 0.05 0.07 0.15 0.22 0.26 0.24 0.19 0.15 0.18 0.22 0.26 0.31 0.43 0.59 0.81 1.07 1.08 0.82 0.73 0.67 0.70 0.68 0.68 0.71 0.62
0.53 0.49 0.40 0.32 0.29 0.28 0.29 0.27 0.21 0.16 0.15 0.13 0.10 0.07 0.09 0.05 0.02 0.02 0.03 0.06 0.14 0.19 0.22 0.23 0.24 0.24 0.21 0.24 0.25 0.31 0.45 0.61 0.73 0.80 1.04 0.87 0.69 0.66 0.68 0.67 0.69 0.66 0.54
0.48 0.38 0.29 0.23 0.23 0.22 0.20 0.17 0.15 0.15 0.14 0.09 0.06 0.07 0.09 0.07 0.02 0.02 0.02 0.05 0.10 0.14 0.17 0.18 0.16 0.20 0.21 0.32 0.41 0.54 0.67 0.84 0.85 0.97 1.12 1.08 0.96 0.87 0.73 0.67 0.70 0.64 0.54
0.31 0.24 0.20 0.18 0.14 0.13 0.13 0.13 0.13 0.13 0.11 0.07 0.05 0.06 0.09 0.09 0.02 0.00 0.01 0.04 0.07 0.10 0.15 0.20 0.17 0.17 0.25 0.41 0.57 0.73 0.85 0.97 0.91 1.00 1.22 1.28 1.13 1.09 1.06 0.89 0.77 0.66 0.58
0.20 0.16 0.13 0.10 0.08 0.07 0.10 0.12 0.12 0.10 0.10 0.08 0.07 0.08 0.09 0.06 0.03 0.00 0.01 0.02 0.04 0.08 0.15 0.25 0.30 0.25 0.32 0.52 0.71 0.80 0.97 1.05 1.02 1.01 0.99 0.99 1.05 1.04 0.99 0.94 0.79 0.63 0.54
0.13 0.10 0.08 0.06 0.04 0.05 0.10 0.11 0.11 0.12 0.11 0.09 0.09 0.08 0.09 0.09 0.04 0.01 0.00 0.01 0.04 0.11 0.25 0.31 0.36 0.35 0.41 0.61 0.77 0.96 1.16 1.25 1.14 1.06 0.87 0.77 0.73 0.74 0.76 0.71 0.64 0.54 0.49
0.11 0.10 0.08 0.06 0.06 0.05 0.09 0.11 0.10 0.10 0.09 0.07 0.07 0.08 0.08 0.11 0.08 0.01 0.01 0.02 0.04 0.12 0.26 0.35 0.39 0.42 0.57 0.86 1.06 1.21 1.33 1.34 1.24 1.03 0.82 0.73 0.65 0.59 0.59 0.62 0.61 0.52 0.46
0.13 0.11 0.10 0.11 0.11 0.08 0.08 0.06 0.07 0.07 0.06 0.07 0.08 0.10 0.11 0.12 0.08 0.05 0.05 0.06 0.08 0.13 0.26 0.41 0.52 0.58 0.75 1.02 1.23 1.39 1.43 1.31 1.09 0.94 0.81 0.77 0.67 0.60 0.59 0.52 0.49 0.44 0.43
0.12 0.10 0.09 0.10 0.11 0.11 0.09 0.04 0.03 0.04 0.02 0.04 0.07 0.09 0.11 0.11 0.07 0.07 0.09 0.10 0.11 0.16 0.26 0.40 0.54 0.66 0.85 1.05 1.21 1.29 1.28 1.18 1.04 0.83 0.71 0.72 0.72 0.65 0.61 0.51 0.43 0.36 0.37
0.11 0.09 0.07 0.07 0.07 0.08 0.13 0.10 0.02 0.01 0.01 0.02 0.03 0.05 0.06 0.06 0.05 0.07 0.10 0.13 0.17 0.23 0.30 0.43 0.55 0.67 0.84 1.02 1.14 1.14 1.07 0.99 0.87 0.73 0.65 0.62 0.63 0.61 0.58 0.50 0.40 0.35 0.35
0.09 0.07 0.05 0.05 0.05 0.07 0.12 0.17 0.15 0.08 0.04 0.04 0.03 0.04 0.04 0.04 0.05 0.07 0.11 0.16 0.19 0.25 0.31 0.47 0.59 0.70 0.85 0.98 1.04 1.03 1.00 0.90 0.79 0.70 0.64 0.58 0.53 0.50 0.46 0.40 0.35 0.33 0.31
0.06 0.04 0.03 0.05 0.05 0.07 0.09 0.11 0.13 0.16 0.18 0.17 0.09 0.04 0.04 0.06 0.07 0.08 0.11 0.16 0.21 0.25 0.38 0.53 0.64 0.70 0.78 0.84 0.90 0.95 0.96 0.87 0.76 0.68 0.65 0.59 0.52 0.44 0.36 0.31 0.28 0.25 0.25
0.05 0.07 0.05 0.04 0.04 0.05 0.06 0.08 0.09 0.11 0.15 0.16 0.15 0.10 0.08 0.10 0.12 0.15 0.16 0.20 0.27 0.35 0.44 0.55 0.62 0.67 0.69 0.69 0.74 0.79 0.82 0.79 0.71 0.65 0.62 0.59 0.52 0.43 0.33 0.26 0.21 0.14 0.16
0.03 0.01 0.02 0.02 0.02 0.03 0.04 0.05 0.07 0.09 0.13 0.17 0.17 0.14 0.14 0.21 0.26 0.28 0.25 0.23 0.27 0.35 0.43 0.50 0.55 0.59 0.57 0.57 0.58 0.61 0.64 0.64 0.61 0.58 0.55 0.53 0.45 0.34 0.28 0.22 0.19 0.17 0.17
0.03 0.01 0.01 0.01 0.02 0.03 0.03 0.03 0.05 0.08 0.12 0.16 0.16 0.13 0.20 0.27 0.33 0.34 0.33 0.31 0.33 0.37 0.40 0.42 0.44 0.46 0.45 0.44 0.44 0.45 0.49 0.53 0.54 0.55 0.52 0.46 0.37 0.29 0.23 0.18 0.14 0.12 0.11
0.01 0.01 0.01 0.01 0.01 0.01 0.01 0.02 0.04 0.06 0.08 0.12 0.14 0.15 0.22 0.26 0.30 0.33 0.36 0.38 0.38 0.38 0.37 0.36 0.37 0.38 0.37 0.37 0.36 0.36 0.39 0.42 0.48 0.52 0.52 0.45 0.34 0.25 0.19 0.14 0.12 0.10 0.09
0.00 0.00 0.00 0.01 0.00 0.00 0.01 0.02 0.03 0.05 0.07 0.08 0.11 0.14 0.19 0.27 0.33 0.37 0.39 0.38 0.38 0.37 0.33 0.30 0.32 0.34 0.33 0.30 0.29 0.31 0.33 0.36 0.42 0.48 0.51 0.44 0.32 0.23 0.17 0.15 0.13 0.11 0.07
0.00 0.00 0.00 0.00 0.00 0.00 0.01 0.01 0.02 0.03 0.04 0.07 0.09 0.13 0.18 0.25 0.32 0.39 0.43 0.41 0.39 0.38 0.35 0.33 0.32 0.31 0.27 0.23 0.21 0.20 0.21 0.26 0.35 0.43 0.43 0.40 0.30 0.21 0.14 0.12 0.11 0.09 0.08
0.00 0.00 0.00 0.00 0.00 0.00 0.01 0.01 0.01 0.02 0.02 0.04 0.06 0.08 0.12 0.16 0.22 0.30 0.38 0.43 0.43 0.43 0.39 0.37 0.36 0.32 0.26 0.19 0.14 0.12 0.17 0.24 0.29 0.33 0.37 0.35 0.26 0.20 0.15 0.13 0.10 0.06 0.06
0.00 0.00 0.00 0.00 0.00 0.00 0.00 0.01 0.01 0.01 0.01 0.02 0.03 0.04 0.05 0.08 0.12 0.18 0.25 0.32 0.37 0.42 0.46 0.49 0.46 0.36 0.26 0.19 0.17 0.17 0.18 0.19 0.19 0.20 0.25 0.28 0.21 0.17 0.15 0.13 0.07 0.05 0.05